FW3988 Weather Reports


time (UTC)temp
C
wind
direction
speed
KPH
gust
KPH
rain 1hr
cm
rain 24hr
cm
rain mn
cm
humidity
%
barometer
mb
20260904074512 30 306 0.0 12.9 0.00 0.00 0.00 78 1011.4
20260904073103 30 286 4.8 12.9 0.00 0.00 0.00 78 1011.3
20260904071552 30 300 6.4 12.9 0.00 0.00 0.00 78 1011.4
20260904070138 30 282 3.2 6.4 0.00 0.00 0.00 77 1011.5
20260904064529 30 323 4.8 11.3 0.00 0.00 0.00 77 1011.7
20260904063023 30 274 3.2 12.9 0.00 0.00 0.00 76 1011.6
20260904061503 30 325 6.4 14.5 0.00 0.00 0.00 76 1011.5
20260904060013 30 317 1.6 11.3 0.00 0.00 0.00 75 1011.7
20260904054509 30 298 3.2 12.9 0.00 0.00 0.00 76 1011.9
20260904053136 30 311 4.8 12.9 0.00 0.00 0.00 76 1012.1
20260904051543 30 360 6.4 14.5 0.00 0.00 0.00 76 1012.2
20260904050135 31 296 4.8 16.1 0.00 0.00 0.00 75 1012.3
20260904044516 31 296 6.4 17.7 0.00 0.00 0.00 75 1012.2
20260904043013 31 296 8.0 16.1 0.00 0.00 0.00 74 1012.2
20260904041558 31 310 6.4 14.5 0.00 0.00 0.00 75 1012.3
20260904040147 31 311 8.0 16.1 0.00 0.00 0.00 76 1012.3
20260904034526 31 296 9.7 17.7 0.00 0.00 0.00 75 1012.4
20260904033015 31 300 11.3 19.3 0.00 0.00 0.00 75 1012.2
20260904031501 31 257 8.0 22.5 0.00 0.00 0.00 76 1012.1
20260904030005 31 289 8.0 17.7 0.00 0.00 0.00 76 1012.0
20260904024540 31 279 9.7 19.3 0.00 0.00 0.00 75 1011.6
20260904023015 31 278 11.3 16.1 0.00 0.00 0.00 75 1011.5
20260904021600 31 262 9.7 16.1 0.00 0.00 0.00 74 1011.3
20260904021503 31 310 8.0 16.1 0.00 0.00 0.00 74 1011.3
20260904020008 31 279 11.3 20.9 0.00 0.00 0.00 74 1011.2
20260904014649 31 269 6.4 22.5 0.00 0.00 0.00 75 1011.1
20260904013107 31 288 8.0 19.3 0.00 0.00 0.00 74 1010.8
20260904011606 31 270 8.0 20.9 0.00 0.00 0.00 74 1010.7
20260904010150 32 296 11.3 20.9 0.00 0.00 0.00 72 1010.5
20260904004551 32 267 6.4 20.9 0.00 0.00 0.00 71 1010.5
20260904003057 32 239 11.3 20.9 0.00 0.00 0.00 71 1010.3
20260904001542 32 288 9.7 19.3 0.00 0.00 0.00 70 1010.4
20260904000137 32 275 9.7 22.5 0.00 0.00 0.00 70 1010.2
20260903234525 33 250 8.0 16.1 0.00 0.00 0.00 67 1010.1
20260903233019 33 239 11.3 19.3 0.00 0.00 0.00 65 1010.0
20260903231557 33 285 11.3 17.7 0.00 0.00 0.00 61 1010.0
20260903230147 33 275 9.7 19.3 0.00 0.00 0.00 63 1010.0
20260903224548 33 265 11.3 17.7 0.00 0.00 0.00 61 1010.0
20260903223026 33 240 9.7 20.9 0.00 0.00 0.00 62 1010.0
20260903221511 33 259 9.7 22.5 0.00 0.00 0.00 66 1010.0
20260903220025 33 282 12.9 20.9 0.00 0.00 0.00 65 1010.1
20260903214520 33 215 8.0 17.7 0.00 0.00 0.00 66 1010.2
20260903213101 33 226 9.7 19.3 0.00 0.00 0.00 66 1010.3
20260903213003 33 213 11.3 19.3 0.00 0.00 0.00 65 1010.4
20260903211548 33 292 8.0 16.1 0.00 0.00 0.00 65 1010.4
20260903210153 33 217 9.7 17.7 0.00 0.00 0.00 65 1010.5
20260903204531 33 220 8.0 17.7 0.00 0.00 0.00 65 1010.8
20260903203010 33 208 9.7 20.9 0.00 0.00 0.00 68 1011.0
20260903201502 32 207 9.7 16.1 0.00 0.00 0.00 69 1011.3
20260903200023 32 231 8.0 19.3 0.00 0.00 0.00 69 1011.4
20260903194515 32 232 11.3 19.3 0.00 0.00 0.00 69 1011.5
20260903193002 33 171 9.7 17.7 0.00 0.00 0.00 69 1011.8
20260903191605 32 196 11.3 22.5 0.00 0.00 0.00 70 1012.0
20260903190012 32 190 8.0 22.5 0.00 0.00 0.00 68 1012.2
20260903184557 33 217 6.4 17.7 0.00 0.00 0.00 67 1012.4
20260903183030 33 221 4.8 12.9 0.00 0.00 0.00 67 1012.5
20260903181505 33 252 3.2 9.7 0.00 0.00 0.00 65 1012.6
20260903180149 33 216 1.6 8.0 0.00 0.00 0.00 65 1012.7
20260903174527 33 220 1.6 9.7 0.00 0.00 0.00 65 1012.9
20260903173018 33 223 1.6 12.9 0.00 0.00 0.00 65 1013.1
20260903171556 32 314 0.0 4.8 0.00 0.00 0.00 61 1013.2
20260903170232 32 9 1.6 4.8 0.00 0.00 0.00 64 1013.2
20260903164532 31 46 3.2 8.0 0.00 0.00 0.00 67 1013.0
20260903163014 30 69 1.6 6.4 0.00 0.00 0.00 69 1013.0
20260903161622 30 13 3.2 8.0 0.00 0.00 0.00 69 1012.8
20260903160146 29 31 1.6 3.2 0.00 0.00 0.00 70 1012.6
20260903154545 29 28 1.6 3.2 0.00 0.00 0.00 70 1012.6
20260903153025 29 30 3.2 6.4 0.00 0.00 0.00 69 1012.5
20260903151511 29 64 0.0 4.8 0.00 0.00 0.00 69 1012.5
20260903150005 28 65 0.0 3.2 0.00 0.00 0.00 75 1012.7
20260903144554 28 64 0.0 3.2 0.00 0.00 0.00 74 1012.7
20260903143050 28 64 0.0 3.2 0.00 0.00 0.00 74 1012.8
20260903141542 28 64 0.0 0.0 0.00 0.00 0.00 75 1012.8
20260903140005 27 64 0.0 3.2 0.00 0.00 0.00 77 1012.8
20260903134555 27 64 1.6 3.2 0.00 0.00 0.00 77 1012.6
20260903133056 27 34 1.6 4.8 0.00 0.00 0.00 78 1012.6
20260903131556 27 32 0.0 0.0 0.00 0.00 0.00 78 1012.3
20260903130152 27 32 0.0 3.2 0.00 0.00 0.00 78 1012.2
20260903124526 27 32 0.0 3.2 0.00 0.00 0.00 78 1012.1
20260903123031 27 32 1.6 3.2 0.00 0.00 0.00 79 1011.9
20260903121601 27 32 0.0 6.4 0.00 0.00 0.00 79 1011.7
20260903120139 27 32 1.6 4.8 0.00 0.00 0.00 79 1011.6
20260903114552 27 18 4.8 9.7 0.00 0.00 0.00 79 1011.5
20260903113022 27 5 3.2 8.0 0.00 0.00 0.00 78 1011.5
20260903111501 27 51 3.2 6.4 0.00 0.00 0.00 79 1011.6
20260903110146 27 10 3.2 6.4 0.00 0.00 0.00 80 1011.6
20260903104526 27 27 3.2 6.4 0.00 0.00 0.00 80 1011.5
20260903103012 27 5 3.2 6.4 0.00 0.00 0.00 80 1011.5
20260903101545 27 37 3.2 6.4 0.00 0.00 0.00 80 1011.5
20260903100138 27 39 1.6 6.4 0.00 0.00 0.00 80 1011.7
20260903094518 27 34 3.2 8.0 0.00 0.00 0.00 80 1011.7
20260903093031 27 51 3.2 6.4 0.00 0.00 0.00 80 1011.9
20260903091500 27 39 1.6 4.8 0.00 0.00 0.00 80 1012.1
20260903090004 27 38 0.0 4.8 0.00 0.00 0.00 82 1012.1
20260903084550 26 49 3.2 6.4 0.00 0.00 0.00 82 1012.2
20260903083026 27 344 1.6 6.4 0.00 0.00 0.00 81 1012.2
20260903081516 27 21 3.2 8.0 0.00 0.00 0.00 80 1012.3
20260903080154 27 45 3.2 11.3 0.00 0.00 0.00 78 1012.4